Regional Weather Roundup
Issued by NWS

Home | Current Version | Previous Version | Text Only | Print | Product List | Glossary Off
Versions: 1 2 3 4 5 6 7 8 9 10 11 12 13 14 15 16 17 18 19 20 21 22 23 24 25 26 27 28 29 30 31 32 33 34 35 36 37 38 39 40 41 42 43 44 45 46 47 48 49 50

348
ASUS45 KTFX 220210
RWRMT
MONTANA REGIONAL WEATHER ROUNDUP
NATIONAL WEATHER SERVICE GREAT FALLS MT
700 PM MST SUN JAN 21 2018

NOTE: "FAIR" INDICATES FEW OR NO CLOUDS BELOW 12000 FEET WITH NO
SIGNIFICANT WEATHER AND/OR OBSTRUCTIONS TO VISIBILITY.

MTZ001>007-043-220300-
WEST OF THE DIVIDE

CITY           SKY/WX    TMP DP  RH WIND       PRES   REMARKS
KALISPELL      CLOUDY    30  21  69 SW5       29.99F
MISSOULA       FAIR      33  21  61 E14       30.03F WCI  23
BUTTE          FAIR       3  -2  79 SE6       30.05F WCI  -8
MULLAN PASS    LGT SNOW  23  21  92 VRB6      29.88F FOG     WCI  16
ANACONDA         N/A     27  14  59 S14G20    30.03F WCI  15
DEER LODGE       N/A     16   9  73 CALM      30.06F
EUREKA           N/A     36  21  55 MISG      29.95F
HAMILTON         N/A     36  18  48 S8        30.04  WCI  29
RONAN            N/A     23  18  80 SE3       30.01F
$$

MTZ008-052>055-220300-
SOUTHWEST MONTANA

CITY           SKY/WX    TMP DP  RH WIND       PRES   REMARKS
BOZEMAN        FAIR      12   7  80 S3        30.10R
ENNIS          PTCLDY    21  12  68 S16       30.13S WCI   7
W YELLOWSTONE  FAIR      14  10  85 SW8       30.12R WCI   3
THREE FORKS      N/A     22  17  81 CALM      30.07F
$$

MTZ009-010-012-014-046-048-049-054-220300-
EAST SLOPES AND CENTRAL MONTANA

CITY           SKY/WX    TMP DP  RH WIND       PRES   REMARKS
CUT BANK       FAIR      30  15  53 SW13      29.86F WCI  20
GREAT FALLS    FAIR      32  14  47 SW21G33   29.94F WCI  20
MALMSTROM AFB  FAIR      29  18  61 SW17      29.96S WCI  18
HELENA         FAIR      23  17  78 W3        30.06S
AUGUSTA        MOCLDY    28  13  51 CALM      29.89F
BOWMANS CRNR   FAIR      26  16  64 S33       29.88F WCI   9
CHOTEAU          N/A     32  12  43 S13       29.91S WCI  22
FAIRFIELD      FAIR      30  16  57 S18G28    29.90F WCI  17
POWER          FAIR      26  16  67 S16       29.91F WCI  13
RAYNESFORD     FAIR      32  12  43 SW5       29.96F
ULM            MOCLDY    30  16  55 S9        29.97F WCI  22
WHITE SULPHUR    N/A     21  10  63 SE18      30.01S WCI   6
$$

MTZ011-013-016-021-045-047-050-051-220300-
NORTH CENTRAL MONTANA

CITY           SKY/WX    TMP DP  RH WIND       PRES   REMARKS
HAVRE          FAIR      21  17  84 SW7       29.94F WCI  12
LEWISTOWN      FAIR      21  12  68 S5        29.96R
N BAR RANCH    FAIR      23  12  63 CALM      29.98S
CHINOOK          N/A     18  12  79 E7        29.97S WCI   8
DENTON         FAIR      25  19  79 MISG      29.93S
GEYSER         FAIR      26  15  63 SW10      29.94F WCI  16
GRASS RANGE    FAIR      24  19  80 W7        29.95R WCI  16
STANFORD       FAIR      24  16  71 CALM      29.95S
WINIFRED       MOCLDY    25  18  75 SE13      29.96S WCI  13
$$

MTZ017>020-022>027-061-062-220300-
NORTHEAST MONTANA

CITY           SKY/WX    TMP DP  RH WIND       PRES   REMARKS
GLASGOW        FAIR      13  10  88 CALM      30.00F
GLENDIVE       FAIR      23  16  74 S6        30.04S WCI  16
JORDAN           N/A     14  10  84 CALM      30.00F
MALTA          CLEAR      7   5  92 CALM      30.00F
SIDNEY         FAIR      21  17  84 SW9       30.03R WCI  11
WOLF POINT     FAIR      18  14  84 S7        30.03S WCI   9
PLENTYWOOD       N/A     25  18  74 CALM      29.98S
POPLAR           N/A     18  12  79 W3        30.03R
SCOBEY           N/A     17   7  65 CALM      29.96
$$

MTZ028>42-056>058-220300-
SOUTHCENTRAL AND SOUTHEAST MONTANA

CITY           SKY/WX    TMP DP  RH WIND       PRES   REMARKS
BAKER          FAIR      21  17  84 CALM      30.03R
BILLINGS       FAIR      31  19  61 W10       30.00S WCI  22
LIVINGSTON     FAIR      26  15  63 W17       30.04S WCI  13
MILES CITY     FAIR      20  17  88 SE5       30.04S
BIG TIMBER     CLEAR     27  14  59 W30       29.99S WCI  10
EKALAKA          N/A     22  12  65 CALM      29.99
FORSYTH          N/A     21  14  73 E3        30.03S
HARLOWTON      FAIR      27  14  59 W29       29.96S WCI  11
LAUREL           N/A     28  19  69 W12       30.01S WCI  18
ROUNDUP          N/A     30  12  47 SW17      29.90  WCI  18
$$

REGIONAL REPORTS...DAKOTAS

CITY           SKY/WX    TMP DP  RH WIND       PRES   REMARKS
WILLISTON      FAIR      14  11  87 W3        30.01S
MINOT          FAIR      20  16  84 S5        30.01S
DICKINSON      FAIR      21  17  84 W9        29.99S WCI  11
BEACH          FAIR      21  18  86 W9        30.05R WCI  11
CROSBY         FAIR      18  16  93 SW6       29.99S WCI   9
TIOGA          FAIR      16  16 100 CALM      29.99S
BISMARCK       FAIR      20  17  88 NE3       30.06R
GRAND FORKS    CLOUDY    24  21  88 N7        30.12R WCI  16
FARGO          CLOUDY    26  23  88 N13       30.09R WCI  15
BUFFALO SD       N/A     24  18  77 W8        29.96R WCI  15
RAPID CITY     MOCLDY    31  24  75 N13       30.01R WCI  21
$$

REGIONAL REPORTS...WYOMING/IDAHO/WASHINGTON

CITY           SKY/WX    TMP DP  RH WIND       PRES   REMARKS
GILLETTE       FAIR      18  14  84 SW7       30.02S WCI   9
SHERIDAN       FAIR      18  12  77 S5        30.01F
BUFFALO WY     FAIR      24  13  62 SW5       30.01F
CODY           FAIR      23  17  78 CALM      30.01F
YELLOWSTONE LA   N/A     -3  -6  87 CALM      30.12R
IDAHO FALLS    FAIR      28  22  78 S8        30.21R WCI  20
SALMON         FAIR      20  16  84 SE3       30.18S
BOISE          CLOUDY    39  24  55 SE9       30.18R
SPOKANE        LGT SNOW  33  33 100 S9        29.95S FOG     WCI  25
$$

REGIONAL REPORTS...ALBERTA

CITY           SKY/WX    TMP DP  RH WIND       PRES   REMARKS
CALGARY        MOCLDY    32  19  59 NW5       29.65F
CARDSTON         N/A     34  14  44 W7          N/A  WCI  28
EDMONTON       CLEAR     18  14  86 E9        29.68F WCI   6
FORT MCMURRAY  CLOUDY     9   3  78 E9        29.95F WCI  -5
HIGH LEVEL     FLURRIES  10   7  85 SE9       29.82F WCI  -2
LETHBRIDGE     MOCLDY    34  18  51 S9        29.80F WCI  26
LLOYDMINSTER   CLOUDY    21  21 100 SE17G24   29.83F FOG     WCI   7
MEDICINE HAT   PTCLDY    34  23  64 S16G24    29.82F WCI  23
MILK RIVER       N/A     30  21  69 SW14        N/A  WCI  20
ONEFOUR          N/A     14  12  92 E12         N/A  WCI   0
PEACE RIVER    CLOUDY    21  18  86 NE10      29.60F WCI  10
PINCHER CREEK  CLOUDY    32  19  59 W22G31    29.78F WCI  19
$$

REGIONAL REPORTS...SASKATCHEWAN

CITY           SKY/WX    TMP DP  RH WIND       PRES   REMARKS
CORONACH         N/A     14  10  85 NW2         N/A
CYPRESS HILLS    N/A     23  14  68 S7          N/A  WCI  15
ESTEVAN        CLEAR     14  12  92 SW6       29.99R WCI   5
MOOSE JAW        N/A     16  14  93 S1          N/A
PRINCE ALBERT  CLOUDY    16  10  79 E12       30.05R WCI   3
REGINA         CLEAR     16  14  93 SE6       29.97R WCI   7
ROCKGLEN         N/A     14  10  85 W6          N/A  WCI   5
SASKATOON      CLOUDY    23  23 100 E10       29.99R WCI  12
SWIFT CURRENT  CLEAR     23  16  74 SW12      29.89S WCI  12
VAL MARIE        N/A      5   1  85 CALM        N/A
$$




USA.gov is the U.S. government's official web portal to all federal, state and local government web resources and services.